User: anonymous   Login
Location: ???? ?????
(30.0052°N, 31.2891°E)
Time: 15:12:37
(UTC+00:00)
Language:

SEDSat Delta rocket - Orbit

View from above orbital plane
View from above orbital plane
View from above satellite
View from above satellite

Ground track
Ground track

The orbit data is extracted from the following two-line orbital elements,

1 25510U 98061C   22221.87916514  .00000352  00000-0  48545-4 0  9997
2 25510  31.4341 154.5786 0325450 197.7333 199.3995 14.38039545248493
Epoch (UTC): 09 August 2022 21:05:59
Eccentricity: 0.0325450
inclination: 31.4341°
perigee height: 532 km
apogee height: 997 km
right ascension of ascending node: 154.5786°
argument of perigee: 197.7333°
revolutions per day: 14.38039545
mean anomaly at epoch: 199.3995°
orbit number at epoch: 24849

The dashed part of the orbit path shows where the satellite is in the earth's shadow,  

DLR